Location: *
(34.0486°S, 61.7880°E)
Time: 13:11:46
(UTC+00:00)

Cosmos 1954 Rocket - Visible Passes

Search period start: 06 August 2020 00:00
Search period end: 16 August 2020 00:00
Orbit: 751 x 782 km, 74.0° (Epoch: 05 August)

Date Brightness Start Highest point End Pass type
(mag) Time Alt. Az. Time Alt. Az. Time Alt. Az.
06 Aug 6.4 15:56:16 10° SSW 15:56:58 14° SSW 15:56:58 14° SSW visible
07 Aug 5.5 15:18:58 10° S 15:21:11 24° S 15:21:11 24° S visible
08 Aug 5.0 14:42:00 10° S 14:45:39 27° SE 14:45:39 27° SE visible
08 Aug 6.3 16:24:00 10° SW 16:26:00 20° WSW 16:26:00 20° WSW visible
09 Aug 5.5 14:05:33 10° SSE 14:08:52 17° ESE 14:10:33 15° E visible
09 Aug 4.7 15:46:05 10° SSW 15:50:56 51° W 15:50:56 51° W visible
10 Aug 3.9 15:08:31 10° SSW 15:13:49 87° ESE 15:16:41 28° NNE visible
11 Aug 4.2 14:31:15 10° S 14:36:22 48° ESE 14:41:27 10° NE visible
11 Aug 6.6 16:14:42 10° WSW 16:17:55 16° W 16:21:08 10° NW visible
12 Aug 4.9 13:54:19 10° S 13:58:48 27° ESE 14:03:14 10° ENE visible
12 Aug 5.8 15:36:11 10° SW 15:40:44 30° W 15:45:17 10° NNW visible
13 Aug 4.7 14:58:18 10° SSW 15:03:28 55° WNW 15:08:37 10° N visible
14 Aug 4.0 14:20:46 10° SSW 14:26:05 81° ESE 14:31:24 10° NNE visible
15 Aug 4.3 13:43:33 10° S 13:48:37 45° ESE 13:53:40 10° NE visible
15 Aug 6.8 15:26:46 10° SW 15:30:13 18° W 15:33:39 10° NW visible
